Location: Newark
(15.5700°N, 75.3700°E)
Time: 20:47:52
(UTC+00:00)

ISS - Pass Details

Date: 15 November 2019
Orbit: 411 x 421 km, 51.6° (Epoch: 07 December)

Event Time Altitude Azimuth Distance (km) Brightness Sun altitude
Exits shadow 23:23:43 13° 28° (NNE) 1,350 -1.1 -23.3°
Maximum altitude 23:24:44 14° 48° (NE) 1,279 -0.9 -23.1°
Drops below altitude 10° 23:26:34 10° 81° (E) 1,492 0.0 -22.6°
Sets 23:29:26 0° 108° (ESE) 2,352 1.6 -22.0°
